Regional Weather Roundup
Issued by NWS

Home | Current Version | Previous Version | Graphics & Text | Print | Product List | Glossary On
Versions: 1 2 3 4 5 6 7 8 9 10 11 12 13 14 15 16 17 18 19 20 21 22 23 24 25 26 27 28 29 30 31 32 33 34 35 36 37 38 39 40 41 42 43 44 45 46 47
000
ASUS43 KMPX 181310
RWRMN
WEATHER ROUNDUP FOR MINNESOTA
NATIONAL WEATHER SERVICE TWIN CITIES/CHANHASSEN MN
800 AM CDT WED APR 18 2018


NOTE: "FAIR" INDICATES FEW OR NO CLOUDS BELOW 12,000 FEET WITH NO
SIGNIFICANT WEATHER AND/OR OBSTRUCTIONS TO VISIBILITY. N/A MEANS
CURRENT SKY AND/OR WEATHER CONDITIONS ARE NOT AVAILABLE.

MNZ060>063-068>070-181400-
   Twin Cities Metro

CITY           SKY/WX    TMP DP  RH WIND       PRES   REMARKS
TWIN CITIES    CLOUDY    32  25  75 N10       29.95S WCI  24
ST PAUL        CLOUDY    32  24  72 N9        29.96F WCI  24
BLAINE         CLOUDY    32  27  80 N9        29.95F WCI  24
LAKEVILLE      CLOUDY    30  25  80 N9        29.92S WCI  22
EDEN PRAIRIE   CLOUDY    32  23  69 N7        29.93S WCI  26
SOUTH ST PAUL  CLOUDY    32  24  71 N8        29.93F WCI  25
LAKE ELMO      CLOUDY    32  27  80 N7        29.95F WCI  26
$$
MNZ001>005-007-008-013>017-022>024-027-028-181400-
   Northwest Minnesota

CITY           SKY/WX    TMP DP  RH WIND       PRES   REMARKS
BEMIDJI        FAIR      31  12  45 N6        30.09R WCI  26
HALLOCK        FAIR      34  19  55 E8        30.16S WCI  27
ROSEAU         FAIR      34  19  55 NE6       30.17R WCI  29
WARROAD        FAIR      30  18  59 E5        30.18R WCI  25
THIEF RVR FALL FAIR      34  15  46 NE14      30.12F WCI  25
CROOKSTON      FAIR      36  21  55 E10       30.11S
FOSSTON        FAIR      32  19  59 NE8       30.09R WCI  25
DETROIT LAKES  FAIR      36  21  55 N7        30.05S
MOORHEAD       FAIR      34  28  80 N6        30.07S WCI  29
PARK RAPIDS    FAIR      34  15  46 N8        30.02R WCI  27
MAHNOMEN       FAIR      33  21  63 NE10      30.07R WCI  24
$$
MNZ006-009>011-018-025>026-181400-
   North Central Minnesota

CITY           SKY/WX    TMP DP  RH WIND       PRES   REMARKS
BAUDETTE       FAIR      32  11  41 NE6       30.13R WCI  26
FLAG ISLAND    FAIR      30   9  40 NE12      30.15R WCI  21
INTL FALLS     FAIR      30  10  43 NE9       30.11R WCI  22
WASKISH        FAIR      30  12  47 NE9       30.11R WCI  22
BIG FORK       FAIR      30   9  40 NE6       30.08R WCI  24
LONGVILLE      CLOUDY    30  16  55 N6        30.03S WCI  24
GRAND RAPIDS   CLOUDY    31  14  49 VRB6      30.07R WCI  25
CRANE LAKE     FAIR      27   9  46 N3        30.11R
ORR            FAIR      28   7  40 NE3       30.06R
COOK           FAIR      30  10  43 NE6       30.06R WCI  24
WALKER         FAIR      32  13  45 N7        30.06R WCI  25
$$
MNZ012-019>021-037-181400-
   Northeast Minnesota

CITY           SKY/WX    TMP DP  RH WIND       PRES   REMARKS
DULUTH         CLOUDY    33  25  72 E13       30.00R WCI  24
ELY            FAIR      28  16  59 NE6       30.04R WCI  22
HIBBING        CLOUDY    30  13  49 NE9       30.03R WCI  22
EVELETH        FAIR      31  14  49 NE13G20   30.04S WCI  21
DULUTH HARBOR  CLOUDY    34  30  86 NE12      30.04R WCI  25
TWO HARBORS    CLOUDY    37  27  65 NE9       30.00S
SILVER BAY     CLOUDY    36  21  55 E7        30.01R
GRAND MARAIS     N/A     37  21  52 NE10G20   30.03R
G MARAIS ARPRT FAIR      28  16  59 N17G23    29.99S WCI  16
$$
MNZ029>031-032-039>041-046>048-054>057-064-181400-
   West Central Minnesota

CITY           SKY/WX    TMP DP  RH WIND       PRES   REMARKS
FERGUS FALLS   CLOUDY    36  27  69 N7        30.02S
WHEATON        CLOUDY    36  28  75 NW6       30.06R
MORRIS         CLOUDY    34  28  80 N9        30.01R WCI  26
ALEXANDRIA     CLOUDY    36  26  67 N3        30.01S
ELBOW LAKE     CLOUDY    34  28  81 CALM      30.02S
WADENA         FAIR      34  21  60 N9        30.01S WCI  26
GLENWOOD       PTSUNNY   34  27  75 N7        30.01R WCI  28
APPLETON       CLOUDY    36  28  75 N12       30.00R
BENSON         CLOUDY    34  27  75 NE7       30.03R WCI  28
ORTONVILLE     CLOUDY    34  27  75 N10       30.01R WCI  26
MADISON        CLOUDY    36  28  75 N10       30.00R
WILLMAR        CLOUDY    34  27  75 N9        30.01R WCI  26
$$
MNZ033>034-036-042>043-049>051-058-059-181400-
   Central Minnesota

CITY           SKY/WX    TMP DP  RH WIND       PRES   REMARKS
ST CLOUD       CLOUDY    32  25  75 N9        29.99R WCI  24
SAUK CENTRE    CLOUDY    32  26  77 N7        30.01R WCI  26
PAYNESVILLE    CLOUDY    33  28  81 N7        30.00R WCI  27
AITKIN         CLOUDY    30  18  59 NE6       30.01R WCI  24
PINE RIVER     PTSUNNY   30  18  59 N6        30.05R WCI  24
BRAINERD       CLOUDY    33  20  58 NE7       30.01R WCI  27
STAPLES        CLOUDY    32  21  64 N6        30.02R WCI  26
LONG PRAIRIE   CLOUDY    32  27  80 W5        30.00S WCI  27
LITTLE FALLS   CLOUDY    32  21  64 CALM      30.01S
LITCHFIELD     CLOUDY    34  27  75 N8        29.98R WCI  27
BUFFALO        CLOUDY    32  24  74 N10       29.98R WCI  23
MAPLE LAKE     CLOUDY    33  27  79 N8        29.99R WCI  26
HUTCHINSON     CLOUDY    32  26  79 N6        29.98R WCI  26
$$
MNZ037-044-045-052-053-181400-
   East Central Minnesota

CITY           SKY/WX    TMP DP  RH WIND       PRES   REMARKS
PRINCETON      CLOUDY    34  27  75 N6        29.99S WCI  29
MORA           CLOUDY    32  25  74 CALM      30.00S
RUSH CITY      CLOUDY    32  26  77 N7        29.98S WCI  26
MOOSE LAKE     CLOUDY    32  23  69 N5        29.99R WCI  27
HINCKLEY       CLOUDY    32  27  80 N8        29.99S WCI  25
CLOQUET        CLOUDY    30  19  64 N5        30.01R WCI  25
MCGREGOR       CLOUDY    32  21  64 N6        30.02R WCI  26
$$
MNZ071>073-080-081-089-090-097-098-181400-
   Southwest Minnesota

CITY           SKY/WX    TMP DP  RH WIND       PRES   REMARKS
MONTEVIDEO     CLOUDY    34  27  75 NE10      30.00R WCI  26
GRANITE FALLS  CLOUDY    35  28  76 N10       30.00R WCI  27
CANBY          CLOUDY    34  28  80 N8        30.01R WCI  27
MARSHALL       CLOUDY    32  27  81 N13       29.98R WCI  22
REDWOOD FALLS  CLOUDY    32  26  78 N8        29.96R WCI  25
OLIVIA         CLOUDY    34  30  86 N10       29.97R WCI  26
PIPESTONE      LGT SNOW N/A N/A N/A NE9       29.94R
WINDOM         LGT SNOW  28  16  59 N8        29.93R WCI  20
WORTHINGTON    LGT SNOW  28  27  93 N13       29.92S VSB 3/4 WCI  18
JACKSON        SNOW      28  28 100 N6        29.92R VSB 1/4 WCI  22
TRACY          CLOUDY    32  28  86 N9        29.95S WCI  24
SLAYTON        FLURRIES  29  27  94 N7        29.94S WCI  21
$$
MNZ065>067-074>077-082>085-091>093-181400-
   South Central Minnesota

CITY           SKY/WX    TMP DP  RH WIND       PRES   REMARKS
MANKATO        CLOUDY    30  24  78 N13       29.93R WCI  20
NEW ULM        CLOUDY    30  23  74 N8        29.94R WCI  23
ST JAMES       CLOUDY    30  25  80 N9        29.95R WCI  22
FAIRMONT       HVY SNOW  28  27  93 N10       29.93R VSB 1/4 WCI  19
GLENCOE        CLOUDY    32  26  78 N8        29.95R WCI  25
OWATONNA       CLOUDY    30  25  80 N6        29.90R WCI  24
WASECA         CLOUDY    30  25  80 N10       29.92R WCI  21
ALBERT LEA     CLOUDY    28  21  74 N6        29.90R WCI  22
$$
MNZ078>079-086>088-094>096-181400-
   Southeast Minnesota

CITY           SKY/WX    TMP DP  RH WIND       PRES   REMARKS
ROCHESTER      CLOUDY    30  23  75 E6        29.88R WCI  24
RED WING       CLOUDY    32  19  59 NE3       29.91F
STANTON        CLOUDY    31  25  76 N13       29.89F WCI  22
DODGE CENTER   CLOUDY    28  23  80 NE5       29.88R WCI  23
WINONA         CLOUDY    34  27  75 E7        29.88S WCI  28
AUSTIN         CLOUDY    30  23  74 N5        29.89R WCI  25
PRESTON        CLOUDY    29  22  75 NE8       29.87R WCI  21
$$
ABBREVIATIONS USED IN REMARKS
   TC - TEMPERATURES IN CELSIUS
  WCI - WIND CHILL INDEX
   HX - HEAT INDEX
  VSB - VISIBILITY
$$




USA.gov is the U.S. government's official web portal to all federal, state and local government web resources and services.